Precipitable_Water
0.48 0.39 0.37 0.42 0.43 0.43 0.41 0.39 0.38 0.42 0.46 0.43 0.41 0.40 0.43 0.45 0.45 0.44 0.43 0.41 0.44 0.46 0.50 0.56 0.65 0.70 0.73 0.79 0.88 0.89 0.78 0.82 1.00 1.04 0.99 0.98 0.97 1.07 1.16 1.23 1.24 1.27 1.32 1.38
0.38 0.33 0.40 0.41 0.42 0.40 0.38 0.36 0.36 0.40 0.42 0.40 0.35 0.32 0.35 0.37 0.41 0.44 0.49 0.54 0.54 0.53 0.53 0.57 0.63 0.75 0.81 0.79 0.87 0.94 0.96 0.88 0.81 1.00 1.03 1.02 0.97 1.00 1.08 1.20 1.24 1.31 1.36 1.41
0.30 0.31 0.39 0.34 0.32 0.31 0.29 0.31 0.30 0.27 0.29 0.31 0.28 0.24 0.23 0.28 0.33 0.43 0.47 0.47 0.52 0.58 0.65 0.72 0.72 0.74 0.81 0.86 0.88 0.90 0.96 0.99 0.87 0.79 0.98 1.07 1.09 1.04 0.99 1.02 1.14 1.23 1.33 1.41
0.24 0.31 0.29 0.28 0.26 0.28 0.24 0.32 0.31 0.28 0.24 0.16 0.25 0.12 0.18 0.22 0.34 0.39 0.39 0.42 0.45 0.50 0.58 0.72 0.75 0.77 0.75 0.85 0.93 0.97 0.98 0.99 0.99 0.87 0.84 0.96 0.96 0.87 0.93 1.06 1.22 1.27 1.36 1.37
0.31 0.30 0.27 0.23 0.30 0.30 0.24 0.31 0.27 0.23 0.20 0.19 0.17 0.16 0.15 0.25 0.32 0.33 0.31 0.38 0.44 0.48 0.50 0.52 0.57 0.63 0.73 0.90 0.98 0.99 1.00 1.05 1.07 0.94 0.89 1.01 1.00 1.08 1.13 1.18 1.21 1.31 1.37 1.42
0.27 0.30 0.28 0.25 0.27 0.30 0.30 0.25 0.23 0.21 0.21 0.15 0.23 0.21 0.15 0.23 0.26 0.25 0.28 0.36 0.39 0.42 0.44 0.49 0.52 0.56 0.61 0.71 0.93 1.05 1.02 1.03 1.12 1.07 1.02 0.97 1.06 1.14 1.12 1.21 1.24 1.31 1.37 1.42
0.17 0.20 0.30 0.29 0.24 0.30 0.23 0.17 0.10 0.08 0.13 0.11 0.20 0.16 0.14 0.24 0.27 0.26 0.30 0.32 0.36 0.40 0.43 0.44 0.46 0.48 0.52 0.60 0.74 0.97 1.05 1.06 1.18 1.22 1.16 1.04 1.13 1.22 1.23 1.28 1.33 1.36 1.39 1.37
0.10 0.12 0.22 0.23 0.21 0.15 0.13 0.17 0.09 0.07 0.07 0.08 0.13 0.10 0.17 0.32 0.34 0.33 0.32 0.34 0.39 0.40 0.43 0.41 0.40 0.39 0.44 0.54 0.65 0.90 1.04 1.08 1.20 1.29 1.29 1.32 1.32 1.37 1.39 1.40 1.42 1.42 1.40 1.38
0.08 0.10 0.17 0.16 0.15 0.13 0.12 0.11 0.22 0.13 0.11 0.10 0.11 0.17 0.28 0.34 0.36 0.35 0.33 0.35 0.34 0.35 0.39 0.38 0.37 0.35 0.37 0.40 0.57 0.86 1.01 1.14 1.20 1.28 1.30 1.36 1.38 1.37 1.39 1.45 1.47 1.46 1.45 1.44
0.12 0.06 0.10 0.12 0.17 0.14 0.14 0.15 0.10 0.16 0.12 0.10 0.09 0.09 0.10 0.27 0.32 0.35 0.34 0.31 0.30 0.31 0.33 0.33 0.33 0.32 0.33 0.32 0.45 0.82 1.00 1.15 1.23 1.32 1.31 1.32 1.37 1.39 1.40 1.44 1.39 1.40 1.40 1.39
0.14 0.12 0.10 0.14 0.09 0.09 0.09 0.09 0.11 0.13 0.14 0.10 0.10 0.09 0.24 0.24 0.27 0.26 0.28 0.32 0.30 0.30 0.29 0.28 0.27 0.28 0.27 0.33 0.42 0.65 0.90 1.07 1.18 1.25 1.30 1.26 1.27 1.30 1.31 1.32 1.36 1.39 1.38 1.35
0.17 0.13 0.09 0.10 0.13 0.15 0.19 0.18 0.14 0.11 0.10 0.15 0.18 0.11 0.26 0.27 0.32 0.35 0.32 0.30 0.25 0.29 0.29 0.27 0.25 0.26 0.31 0.35 0.45 0.53 0.80 0.99 1.10 1.20 1.25 1.29 1.26 1.24 1.21 1.21 1.21 1.26 1.25 1.25
0.19 0.13 0.08 0.07 0.14 0.22 0.20 0.22 0.21 0.21 0.20 0.14 0.14 0.11 0.25 0.28 0.27 0.26 0.22 0.21 0.23 0.30 0.28 0.24 0.22 0.23 0.26 0.37 0.43 0.50 0.65 0.89 1.03 1.09 1.18 1.16 1.14 1.13 1.14 1.13 1.07 1.10 1.06 1.03
0.23 0.17 0.13 0.08 0.10 0.13 0.12 0.13 0.16 0.17 0.14 0.14 0.12 0.14 0.13 0.18 0.18 0.18 0.20 0.22 0.28 0.31 0.27 0.24 0.23 0.23 0.24 0.27 0.36 0.49 0.57 0.72 0.94 1.00 1.01 1.05 1.05 1.05 1.04 1.05 1.05 1.03 1.01 1.00
0.19 0.12 0.14 0.15 0.16 0.16 0.15 0.16 0.19 0.17 0.16 0.15 0.14 0.15 0.17 0.18 0.21 0.23 0.26 0.28 0.31 0.28 0.26 0.26 0.24 0.25 0.26 0.27 0.35 0.46 0.57 0.69 0.78 0.94 0.95 1.00 1.06 1.05 1.03 1.00 0.99 0.98 0.95 0.94
0.22 0.14 0.16 0.14 0.16 0.15 0.13 0.14 0.16 0.16 0.17 0.18 0.19 0.18 0.24 0.26 0.28 0.27 0.28 0.33 0.30 0.28 0.28 0.29 0.29 0.29 0.28 0.30 0.35 0.49 0.59 0.65 0.73 0.81 0.87 0.91 0.94 0.97 0.94 0.94 0.97 0.97 0.97 0.94
0.18 0.17 0.15 0.10 0.14 0.14 0.13 0.14 0.14 0.14 0.16 0.17 0.16 0.22 0.26 0.27 0.26 0.27 0.37 0.34 0.32 0.30 0.30 0.30 0.33 0.34 0.32 0.33 0.38 0.48 0.57 0.61 0.66 0.70 0.78 0.83 0.86 0.88 0.89 0.89 0.89 0.88 0.89 0.87
0.16 0.16 0.16 0.12 0.14 0.09 0.15 0.17 0.17 0.16 0.19 0.20 0.22 0.23 0.27 0.27 0.27 0.28 0.35 0.34 0.32 0.32 0.33 0.33 0.36 0.37 0.36 0.38 0.38 0.46 0.57 0.59 0.59 0.64 0.67 0.77 0.80 0.81 0.85 0.84 0.82 0.81 0.78 0.75
0.20 0.18 0.16 0.13 0.12 0.13 0.16 0.16 0.15 0.15 0.17 0.22 0.23 0.24 0.23 0.25 0.26 0.31 0.37 0.36 0.34 0.36 0.37 0.37 0.41 0.41 0.39 0.39 0.40 0.42 0.49 0.53 0.58 0.57 0.63 0.68 0.76 0.77 0.78 0.78 0.77 0.76 0.75 0.75
0.21 0.23 0.19 0.17 0.14 0.10 0.15 0.20 0.23 0.23 0.15 0.24 0.24 0.23 0.26 0.29 0.23 0.30 0.39 0.35 0.33 0.33 0.37 0.38 0.42 0.44 0.41 0.41 0.43 0.41 0.43 0.49 0.52 0.56 0.58 0.64 0.72 0.72 0.74 0.74 0.73 0.74 0.74 0.69
0.18 0.21 0.18 0.18 0.17 0.19 0.25 0.26 0.27 0.19 0.18 0.27 0.28 0.29 0.29 0.27 0.29 0.35 0.38 0.34 0.35 0.36 0.36 0.43 0.44 0.42 0.42 0.44 0.43 0.42 0.42 0.45 0.50 0.56 0.59 0.60 0.65 0.66 0.70 0.70 0.69 0.66 0.60 0.55
0.17 0.17 0.18 0.20 0.18 0.17 0.29 0.29 0.26 0.30 0.35 0.35 0.34 0.34 0.33 0.33 0.32 0.32 0.33 0.33 0.33 0.35 0.37 0.45 0.41 0.41 0.42 0.43 0.44 0.42 0.41 0.46 0.49 0.52 0.56 0.59 0.58 0.61 0.63 0.59 0.55 0.54 0.50 0.45
0.19 0.23 0.21 0.23 0.22 0.29 0.34 0.35 0.37 0.37 0.34 0.36 0.38 0.39 0.39 0.36 0.34 0.34 0.33 0.33 0.35 0.37 0.44 0.44 0.42 0.41 0.41 0.42 0.44 0.43 0.45 0.47 0.48 0.47 0.50 0.54 0.54 0.52 0.52 0.47 0.43 0.42 0.40 0.38
0.27 0.30 0.25 0.26 0.30 0.34 0.38 0.41 0.43 0.45 0.44 0.43 0.43 0.40 0.40 0.40 0.38 0.37 0.38 0.38 0.38 0.44 0.41 0.42 0.41 0.39 0.38 0.40 0.43 0.47 0.48 0.48 0.48 0.46 0.47 0.48 0.45 0.43 0.42 0.38 0.38 0.36 0.34 0.32
0.29 0.31 0.28 0.29 0.34 0.37 0.39 0.40 0.38 0.36 0.39 0.39 0.40 0.45 0.43 0.41 0.42 0.41 0.41 0.41 0.46 0.43 0.41 0.41 0.40 0.39 0.38 0.40 0.42 0.47 0.48 0.48 0.46 0.44 0.42 0.40 0.39 0.38 0.37 0.37 0.34 0.30 0.28 0.26
0.31 0.31 0.28 0.27 0.39 0.39 0.36 0.37 0.36 0.36 0.37 0.38 0.37 0.39 0.43 0.46 0.44 0.44 0.45 0.48 0.48 0.44 0.42 0.41 0.40 0.39 0.38 0.39 0.41 0.46 0.48 0.47 0.43 0.38 0.37 0.37 0.36 0.34 0.32 0.29 0.26 0.25 0.23 0.22
Wind_Speed
21 24 25 26 26 27 29 31 32 32 30 33 34 38 36 37 36 33 34 32 28 30 29 29 29 29 29 29 29 28 30 31 32 33 34 36 37 37 39 40 40 39 38 37
21 24 22 21 22 24 26 29 31 30 30 32 35 37 35 32 30 31 26 27 30 31 30 30 29 30 31 32 32 32 32 32 33 36 37 37 38 40 40 40 41 42 41 41
23 23 23 25 25 26 26 26 28 31 32 32 33 32 28 23 22 19 21 24 25 27 29 30 30 30 31 32 33 34 35 36 35 36 38 38 38 40 39 39 41 42 43 43
18 18 19 21 23 24 26 24 26 28 29 29 27 34 27 23 16 17 21 23 24 25 26 27 29 31 32 33 35 36 37 38 38 38 38 38 36 36 37 37 38 39 41 41
13 17 19 21 18 20 24 24 26 28 29 30 27 24 25 18 17 20 22 24 25 25 26 28 29 30 31 33 35 36 38 38 39 39 38 38 37 35 35 36 37 38 37 39
14 17 17 19 22 20 22 24 27 28 24 23 17 18 21 18 19 19 21 22 24 26 27 27 28 29 30 31 32 34 36 37 38 37 38 39 38 37 36 36 35 36 37 38
19 16 16 17 19 18 22 23 23 19 17 22 18 26 25 19 19 20 22 23 25 25 24 26 27 28 30 30 32 31 32 34 34 33 33 36 37 37 38 37 36 37 36 35
16 15 16 18 18 20 23 20 19 20 21 28 30 25 21 17 19 21 22 24 25 26 27 28 29 30 31 30 31 30 29 28 28 26 26 28 32 35 33 33 33 33 33 32
17 16 17 19 21 21 18 21 20 26 30 30 27 30 23 23 22 23 24 25 27 28 30 32 33 32 31 32 31 29 27 26 24 24 22 23 26 28 29 29 29 30 30 30
16 22 20 21 22 23 22 25 23 20 23 25 28 34 33 22 24 26 27 29 31 32 33 33 33 34 33 33 31 28 25 23 23 22 21 19 19 24 25 26 27 28 27 28
21 20 19 23 22 26 27 28 27 28 29 31 33 32 23 24 25 28 31 33 35 35 35 34 34 34 34 32 29 27 24 22 21 20 19 20 18 18 20 20 21 23 24 24
20 23 26 29 30 26 27 28 27 27 31 29 31 39 31 31 31 34 36 36 39 38 37 35 35 35 33 31 29 27 24 21 19 18 17 13 19 20 20 20 20 21 22 21
22 21 26 24 19 22 25 25 26 30 34 39 36 40 28 35 42 44 46 46 42 38 36 35 34 33 32 31 30 28 26 23 20 18 17 18 13 19 19 20 23 21 22 23
24 25 27 30 35 36 41 40 40 40 39 42 47 51 52 48 49 49 46 44 39 36 34 34 32 32 31 31 31 30 28 25 23 21 20 19 19 19 25 23 20 19 19 22
24 30 33 35 38 40 43 44 42 44 47 46 52 53 51 50 46 45 41 37 33 31 31 31 31 30 30 29 29 29 27 24 23 22 20 18 14 14 12 16 17 19 21 19
26 30 34 38 39 41 45 44 44 44 46 46 46 50 42 40 36 36 34 29 28 28 29 29 28 28 28 27 26 25 22 22 21 21 20 18 16 11 12 16 15 14 13 11
28 28 31 32 33 36 34 29 32 36 36 35 36 36 34 35 32 31 26 26 25 26 26 26 25 25 25 25 24 21 19 19 19 18 18 16 15 11 8 8 11 12 12 11
26 27 27 31 32 25 19 28 32 31 31 30 29 29 28 29 30 27 22 20 22 23 23 23 23 23 23 22 21 19 17 16 17 17 17 16 13 11 8 5 6 7 8 7
24 25 25 24 25 33 30 26 27 30 29 28 29 28 30 30 25 21 16 19 22 24 23 23 22 22 22 21 19 17 15 14 15 16 16 15 14 12 10 8 5 6 6 8
21 23 23 23 27 26 27 31 29 30 32 30 26 25 23 21 18 17 20 24 26 26 24 23 22 21 20 19 17 15 14 13 13 14 16 14 13 13 11 10 10 9 10 13
19 21 23 24 27 29 33 32 32 29 32 30 30 29 26 25 25 27 28 29 27 26 25 22 21 20 19 18 15 13 11 11 11 13 13 13 12 11 11 10 10 8 11 11
20 19 21 24 26 29 27 33 35 39 42 42 38 35 34 32 31 30 29 28 29 27 24 21 20 19 18 17 14 11 9 9 9 10 11 10 10 9 8 7 8 9 9 8
17 18 24 25 28 40 47 49 50 49 49 46 44 42 39 36 32 28 26 24 22 21 20 19 18 17 15 14 11 9 7 6 6 8 10 7 7 7 5 6 7 8 9 9
21 23 25 33 33 44 51 52 54 53 51 48 46 42 38 35 31 27 24 21 19 17 17 17 15 14 12 11 8 6 5 5 5 7 8 7 4 4 4 5 7 7 9 10
23 26 29 36 42 52 48 51 54 52 47 43 40 37 36 33 29 27 23 21 16 15 15 13 11 10 8 7 5 5 4 3 4 7 6 5 3 2 2 4 6 7 9 11
18 25 29 36 46 43 51 56 52 47 41 35 31 27 28 27 24 21 17 14 13 13 11 8 7 6 5 4 4 4 3 4 5 7 5 4 3 1 2 4 5 8 10 12
Wind_Direction
278 277 279 288 288 287 286 286 288 289 292 290 289 288 289 290 288 286 288 286 284 285 285 283 282 281 279 277 275 274 271 267 263 259 258 255 253 253 251 250 249 248 248 249
275 277 288 286 287 287 287 289 288 291 292 294 293 291 292 291 289 289 289 289 289 289 287 285 283 281 281 278 276 275 273 272 268 263 260 258 257 254 252 251 250 249 249 249
278 281 286 286 287 288 287 287 292 294 295 291 292 293 295 297 296 295 298 298 297 296 292 289 287 285 282 280 279 277 276 275 273 268 261 259 261 253 251 251 250 249 249 249
282 288 286 288 288 289 290 295 294 294 296 295 300 294 296 298 300 304 306 306 306 305 303 299 294 289 286 284 282 279 278 277 274 270 262 257 257 252 249 252 251 250 249 249
286 290 294 291 295 294 292 296 293 293 292 294 292 285 295 296 295 303 306 307 307 307 306 305 303 300 293 288 285 282 281 279 276 271 264 256 253 251 252 252 251 249 249 249
291 291 294 294 294 294 299 295 295 290 287 287 294 293 298 295 296 301 307 310 311 309 309 307 307 304 302 301 294 288 284 282 280 273 265 255 252 249 250 251 251 250 250 252
298 293 293 306 297 295 306 303 301 292 281 288 290 294 288 289 293 301 306 311 313 314 314 312 312 313 311 309 303 297 293 285 282 276 267 255 250 249 250 251 251 251 252 253
299 286 303 306 303 300 300 300 295 294 295 295 295 286 296 290 289 297 302 306 309 311 311 311 311 312 313 312 311 305 299 293 283 280 272 260 252 249 250 251 250 251 251 253
300 289 295 298 300 297 300 290 299 289 286 284 285 284 283 280 284 295 300 304 306 306 306 307 308 310 310 313 314 308 302 295 287 277 275 266 253 249 248 247 249 250 248 249
300 296 292 298 297 289 285 298 291 279 290 286 286 292 292 272 284 294 300 304 304 303 303 304 305 306 305 309 310 309 304 296 290 282 270 268 260 248 247 245 248 247 248 249
303 294 297 299 293 297 293 286 282 285 281 282 286 285 289 288 287 295 299 300 302 301 301 301 302 303 302 303 305 306 304 297 292 284 275 261 258 253 246 245 246 247 246 249
306 299 297 294 296 296 293 288 285 283 287 284 283 282 290 283 285 293 294 297 300 298 297 298 299 300 300 299 299 300 300 295 293 285 273 273 252 253 251 246 248 251 250 249
306 298 303 302 298 294 296 295 296 291 288 282 281 282 287 291 287 290 292 293 296 295 295 297 298 298 297 296 295 294 290 286 284 279 268 276 287 254 256 256 252 254 251 251
299 293 290 292 297 299 295 292 292 292 287 288 280 286 286 286 287 288 289 289 289 290 293 297 298 299 298 296 292 291 285 278 274 271 274 281 285 272 256 253 254 255 259 253
296 295 295 295 297 296 295 295 294 289 286 281 286 284 287 288 287 287 287 284 283 287 292 297 299 299 299 298 296 293 282 270 268 265 270 276 286 277 268 255 253 257 249 258
300 298 303 300 299 297 297 297 295 291 289 286 286 285 288 288 287 287 283 280 282 287 293 297 300 301 300 301 300 295 280 269 264 260 261 266 271 286 282 262 251 255 253 253
299 303 307 305 307 307 304 306 307 303 299 297 295 294 294 292 288 286 284 281 284 290 294 299 300 302 303 302 301 295 285 269 260 256 255 256 259 284 281 260 256 247 245 246
297 299 303 308 311 307 314 314 308 305 305 302 300 298 298 292 293 288 277 282 289 294 296 300 302 303 304 305 303 294 286 272 257 252 251 251 258 264 279 277 253 246 234 251
290 298 303 310 308 305 310 313 311 310 308 305 304 305 303 299 287 278 269 289 294 295 295 297 301 303 305 306 304 294 285 275 259 248 245 246 248 253 263 274 282 249 257 263
296 293 295 304 307 307 317 318 313 307 301 302 302 305 305 306 292 272 289 296 295 294 293 294 298 301 305 305 303 297 286 277 259 245 238 240 249 254 272 273 287 270 277 273
301 301 293 296 299 305 310 312 311 299 304 306 301 296 293 290 288 287 287 292 293 291 289 289 293 298 302 303 299 298 286 276 257 240 236 238 249 255 266 279 281 279 295 292
306 310 306 306 305 310 320 313 303 301 301 298 293 290 287 284 285 288 290 290 291 288 284 284 287 293 298 300 295 292 286 275 259 236 228 235 242 255 263 286 282 300 303 303
307 301 311 309 307 310 311 306 302 297 292 288 282 281 281 279 278 282 285 288 293 293 281 280 283 287 291 296 288 283 279 271 254 226 217 230 240 249 272 279 289 308 310 309
309 309 308 312 315 313 314 314 308 304 297 290 280 274 269 273 270 273 276 282 286 292 293 279 275 280 283 286 278 269 263 258 231 208 206 212 229 239 284 304 308 311 314 317
309 315 315 313 317 321 321 322 317 309 301 290 284 275 264 259 263 263 269 275 276 284 292 280 269 269 269 266 253 244 248 231 198 184 185 193 213 223 307 326 324 333 338 333
318 325 324 322 326 326 327 330 325 318 309 295 282 274 257 250 250 251 257 264 270 277 283 269 259 250 241 229 212 211 225 195 170 166 170 177 192 254 317 337 348 353 347 343